User: anonymous   Login
Location: Hackbridge
(51.3833°N, 0.1500°W)
Time: 11:17:32
(UTC+00:00)
Language:

STARLINK-35 - Orbit

View from above orbital plane
View from above orbital plane
View from above satellite
View from above satellite

Ground track
Ground track

The orbit data is extracted from the following two-line orbital elements,

1 44264U 19029AF  19341.25001157 -.00034989  00000-0 -19987-2 0  9991
2 44264  53.0026   6.6480 0001208 118.8596 265.6721 15.12151386 29846
Epoch (UTC): 07 December 2019 06:00:01
Eccentricity: 0.0001208
inclination: 53.0026°
perigee height: 529 km
apogee height: 530 km
right ascension of ascending node: 6.6480°
argument of perigee: 118.8596°
revolutions per day: 15.12151386
mean anomaly at epoch: 265.6721°
orbit number at epoch: 2984

The dashed part of the orbit path shows where the satellite is in the earth's shadow,  

DLR